Date String (YYYY-MM-DD hh:mm:ss) UTC,Instrument flags,Ambient pressure (hPa),Sample flow (lpm),Bypass flow (lpm),Sample temperature (°C),Ambient temperature (°C),ASC tube jacket temperature (°C),LED temperature (°C),Box temperature (°C),Sample RH (%),Span deviation,Mass concentration (μg/m³),Mass concentration (μg/m³),Mass concentration (μg/m³)
DateTimeUTC,F1_M11,P_M11,Q1_M11,Q2_M11,T1_M11,T2_M11,T3_M11,T4_M11,T5_M11,U1_M11,ZSPAN_M11,X0_M11,X2_M11,X1_M11
2022-02-10 19:00:00,,0822.7,5.01,0.00,25.4,24.6,00.0,34.4,27.1,10.3,0000.0,0001.80,0000.68,0000.54
2022-02-10 19:01:00,,0822.7,5.00,0.00,25.3,24.6,00.0,34.3,27.1,10.3,0000.0,0001.89,0000.70,0000.54
2022-02-10 19:02:00,,0822.5,5.00,0.00,25.3,24.6,00.0,34.3,27.1,10.1,0000.0,0002.00,0000.71,0000.54
2022-02-10 19:03:00,,0822.5,5.02,0.00,25.3,24.5,00.0,34.3,27.1,10.3,0000.0,0001.39,0000.70,0000.52
2022-02-10 19:04:00,,0822.4,4.99,0.00,25.3,24.5,00.0,34.3,27.0,10.4,0000.0,0001.38,0000.69,0000.52
2022-02-10 19:05:00,,0822.3,5.00,0.00,25.3,24.5,00.0,34.3,27.0,10.5,0000.0,0001.28,0000.67,0000.51
2022-02-10 19:06:00,,0822.4,5.01,0.00,25.3,24.5,00.0,34.3,27.0,10.5,0000.0,0001.27,0000.67,0000.51
2022-02-10 19:07:00,,0822.3,4.99,0.00,25.2,24.5,00.0,34.3,27.0,10.4,0000.0,0001.29,0000.68,0000.50
2022-02-10 19:08:00,,0822.4,5.00,0.00,25.2,24.5,00.0,34.3,27.0,10.6,0000.0,0001.29,0000.68,0000.50
2022-02-10 19:09:00,,0822.4,5.00,0.00,25.2,24.5,00.0,34.3,26.9,10.4,0000.0,0001.38,0000.71,0000.50
2022-02-10 19:10:00,,0822.4,5.00,0.00,25.2,24.5,00.0,34.3,27.0,10.3,0000.0,0001.34,0000.69,0000.49
2022-02-10 19:11:00,,0822.4,5.01,0.00,25.2,24.5,00.0,34.3,27.0,10.5,0000.0,0001.29,0000.67,0000.48
2022-02-10 19:12:00,,0822.3,4.99,0.00,25.2,24.5,00.0,34.3,27.0,10.5,0000.0,0002.49,0000.64,0000.47
2022-02-10 19:13:00,,0822.3,5.00,0.00,25.2,24.5,00.0,34.3,27.0,10.6,0000.0,0002.40,0000.63,0000.47
2022-02-10 19:14:00,,0822.3,4.99,0.00,25.2,24.5,00.0,34.3,27.0,10.5,0000.0,0002.26,0000.62,0000.47
2022-02-10 19:15:00,,0822.3,5.01,0.00,25.2,24.5,00.0,34.3,27.0,10.1,0000.0,0002.27,0000.63,0000.46
2022-02-10 19:16:00,,0822.3,4.99,0.00,25.2,24.5,00.0,34.3,26.9,10.4,0000.0,0002.28,0000.64,0000.46
2022-02-10 19:17:00,,0822.3,5.00,0.00,25.2,24.5,00.0,34.2,27.0,10.5,0000.0,0002.33,0000.65,0000.46
2022-02-10 19:18:00,,0822.3,4.98,0.00,25.2,24.5,00.0,34.2,27.0,10.6,0000.0,0002.26,0000.62,0000.46
2022-02-10 19:19:00,,0822.3,5.01,0.00,25.2,24.5,00.0,34.2,26.9,10.6,0000.0,0002.21,0000.60,0000.45
2022-02-10 19:20:00,,0822.3,4.99,0.00,25.2,24.5,00.0,34.2,27.0,10.7,0000.0,0002.08,0000.55,0000.45
2022-02-10 19:21:00,,0822.3,5.00,0.00,25.2,24.5,00.0,34.2,27.0,10.5,0000.0,0002.07,0000.55,0000.45
2022-02-10 19:22:00,,0822.3,5.01,0.00,25.3,24.5,00.0,34.2,27.0,10.5,0000.0,0002.73,0000.54,0000.45
2022-02-10 19:23:00,,0822.3,4.99,0.00,25.3,24.6,00.0,34.3,27.0,10.7,0000.0,0002.05,0000.55,0000.46
2022-02-10 19:24:00,,0822.3,5.00,0.00,25.3,24.5,00.0,34.3,27.0,10.5,0000.0,0002.05,0000.56,0000.47
2022-02-10 19:25:00,,0822.3,5.00,0.00,25.3,24.5,00.0,34.3,27.0,10.5,0000.0,0002.52,0000.59,0000.48
2022-02-10 19:26:00,,0822.2,4.99,0.00,25.3,24.5,00.0,34.3,27.0,10.4,0000.0,0003.15,0000.57,0000.48
2022-02-10 19:27:00,,0822.2,5.01,0.00,25.3,24.6,00.0,34.3,27.1,10.6,0000.0,0003.18,0000.57,0000.48
2022-02-10 19:28:00,,0822.2,5.00,0.00,25.3,24.6,00.0,34.3,27.1,10.5,0000.0,0003.14,0000.56,0000.48
2022-02-10 19:29:00,,0822.1,5.01,0.00,25.3,24.6,00.0,34.3,27.1,10.7,0000.0,0003.16,0000.58,0000.49
2022-02-10 19:30:00,,0822.1,5.01,0.00,25.4,24.6,00.0,34.3,27.1,10.5,0000.0,0003.28,0000.62,0000.50
2022-02-10 19:31:00,,0822.1,5.00,0.00,25.4,24.6,00.0,34.3,27.1,10.5,0000.0,0003.36,0000.64,0000.51
2022-02-10 19:32:00,,0822.1,4.99,0.00,25.4,24.6,00.0,34.3,27.1,10.7,0000.0,0003.38,0000.65,0000.52
2022-02-10 19:33:00,,0822.1,5.02,0.00,25.4,24.6,00.0,34.3,27.2,10.5,0000.0,0002.71,0000.67,0000.52
2022-02-10 19:34:00,,0822.1,5.00,0.00,25.4,24.6,00.0,34.3,27.1,10.5,0000.0,0002.10,0000.67,0000.52
2022-02-10 19:35:00,,0822.1,5.01,0.00,25.4,24.6,00.0,34.3,27.1,10.7,0000.0,0002.07,0000.65,0000.50
2022-02-10 19:36:00,,0822.1,4.99,0.00,25.4,24.6,00.0,34.3,27.2,10.5,0000.0,0002.00,0000.64,0000.50
2022-02-10 19:37:00,,0822.2,5.00,0.00,25.4,24.7,00.0,34.3,27.2,10.8,0000.0,0001.02,0000.65,0000.52
2022-02-10 19:38:00,,0822.2,4.99,0.00,25.5,24.7,00.0,34.4,27.2,10.8,0000.0,0001.00,0000.67,0000.53
2022-02-10 19:39:00,,0822.1,5.01,0.00,25.5,24.7,00.0,34.4,27.3,10.8,0000.0,0001.05,0000.69,0000.53
2022-02-10 19:40:00,,0822.2,5.00,0.00,25.5,24.7,00.0,34.4,27.3,10.8,0000.0,0001.07,0000.70,0000.54
2022-02-10 19:41:00,,0822.2,4.99,0.00,25.5,24.7,00.0,34.4,27.3,11.4,0000.0,0001.48,0000.72,0000.57
2022-02-10 19:42:00,,0822.2,5.01,0.00,25.5,24.7,00.0,34.4,27.4,13.6,0000.0,0002.39,0000.99,0000.71
2022-02-10 19:43:00,,0822.1,4.99,0.00,25.6,24.8,00.0,34.4,27.4,14.3,0000.0,0004.22,0001.47,0001.04
2022-02-10 19:44:00,,0822.1,4.99,0.00,25.6,24.8,00.0,34.4,27.4,14.6,0000.0,0007.51,0002.01,0001.44
2022-02-10 19:45:00,,0822.1,5.00,0.00,25.6,24.9,00.0,34.5,27.5,14.4,0000.0,0008.08,0002.59,0001.86
2022-02-10 19:46:00,,0822.1,4.99,0.00,25.6,24.9,00.0,34.5,27.5,14.6,0000.0,0008.76,0003.11,0002.30
2022-02-10 19:47:00,,0822.1,5.00,0.00,25.7,25.0,00.0,34.5,27.5,15.0,0000.0,0010.55,0003.44,0002.75
2022-02-10 19:48:00,,0822.1,4.99,0.00,25.7,25.0,00.0,34.5,27.6,15.1,0000.0,0011.32,0003.80,0003.16
2022-02-10 19:49:00,,0822.1,5.00,0.00,25.7,25.0,00.0,34.5,27.6,15.2,0000.0,0012.13,0004.16,0003.42
2022-02-10 19:50:00,,0822.1,5.02,0.00,25.7,25.1,00.0,34.5,27.6,14.4,0000.0,0013.10,0004.45,0003.67
2022-02-10 19:51:00,,0822.2,4.98,0.00,25.7,25.1,00.0,34.6,27.6,14.6,0000.0,0014.03,0004.73,0003.88
2022-02-10 19:52:00,,0822.2,5.00,0.00,25.8,25.1,00.0,34.6,27.6,13.8,0000.0,0014.72,0004.95,0004.06
2022-02-10 19:53:00,,0822.2,5.00,0.00,25.8,25.2,00.0,34.6,27.7,13.5,0000.0,0014.85,0005.07,0004.18
2022-02-10 19:54:00,,0822.2,5.02,0.00,25.8,25.2,00.0,34.6,27.7,13.4,0000.0,0014.58,0005.05,0004.18
2022-02-10 19:55:00,,0822.2,4.99,0.00,25.9,25.2,00.0,34.6,27.7,13.4,0000.0,0013.37,0005.03,0004.14
2022-02-10 19:56:00,,0822.2,5.01,0.00,25.9,25.3,00.0,34.7,27.8,13.7,0000.0,0013.41,0004.98,0004.09
2022-02-10 19:57:00,,0822.3,5.00,0.00,25.9,25.3,00.0,34.7,27.8,12.6,0000.0,0013.16,0004.89,0003.99
2022-02-10 19:58:00,,0822.3,5.00,0.00,26.0,25.3,00.0,34.7,27.8,13.0,0000.0,0011.76,0004.81,0003.90
2022-02-10 19:59:00,,0822.3,4.99,0.00,26.0,25.4,00.0,34.7,27.9,13.5,0000.0,0011.60,0004.72,0003.83
